This is the latest recevied weather packets stored in our database for station/object SV2BZQ-2. If no packets are shown the sender has not sent any weather packets the latest 1 day(s).
| Time | Temp. | Humidity | Pressure | Rain* | Wind** | Luminosity | Snow |
|---|---|---|---|---|---|---|---|
| 1777994446 | 27.78° C | 42% | 1011.1 hPa | 0 mm | 2.68 m/s, 185° | 336 W/m² | - |
| 1777994344 | 27.78° C | 41% | 1011.2 hPa | 0 mm | 2.68 m/s, 177° | 339 W/m² | - |
| 1777994245 | 27.78° C | 41% | 1011.1 hPa | 0 mm | 2.68 m/s, 208° | 348 W/m² | - |
| 1777994139 | 28.33° C | 40% | 1011.1 hPa | 0 mm | 2.24 m/s, 207° | 352 W/m² | - |
| 1777994039 | 28.33° C | 38% | 1011.2 hPa | 0 mm | 2.24 m/s, 152° | 357 W/m² | - |
| 1777993898 | 28.33° C | 39% | 1011.2 hPa | 0 mm | 1.79 m/s, 194° | 364 W/m² | - |
| 1777993794 | 28.33° C | 39% | 1011.2 hPa | 0 mm | 1.79 m/s, 157° | 369 W/m² | - |
| 1777993656 | 28.33° C | 39% | 1011.2 hPa | 0 mm | 1.34 m/s, 195° | 373 W/m² | - |
| 1777993555 | 28.33° C | 39% | 1011.2 hPa | 0 mm | 1.79 m/s, 225° | 380 W/m² | - |
| 1777993316 | 28.33° C | 40% | 1011.2 hPa | 0 mm | 1.79 m/s, 162° | 385 W/m² | - |
| 1777993192 | 28.33° C | 40% | 1011.2 hPa | 0 mm | 1.79 m/s, 188° | 388 W/m² | - |
| 1777993088 | 28.33° C | 40% | 1011.2 hPa | 0 mm | 1.79 m/s, 181° | 397 W/m² | - |
| 1777992952 | 28.33° C | 40% | 1011.2 hPa | 0 mm | 1.79 m/s, 213° | 403 W/m² | - |
| 1777992848 | 28.33° C | 39% | 1011.3 hPa | 0 mm | 1.79 m/s, 243° | 413 W/m² | - |
| 1777992761 | 28.33° C | 39% | 1011.3 hPa | 0 mm | 1.79 m/s, 211° | 418 W/m² | - |
| 1777992662 | 28.33° C | 38% | 1011.4 hPa | 0 mm | 1.79 m/s, 227° | 422 W/m² | - |
| 1777992590 | 28.33° C | 38% | 1011.5 hPa | 0 mm | 1.79 m/s, 159° | 427 W/m² | - |
| 1777992500 | 28.33° C | 39% | 1011.5 hPa | 0 mm | 1.79 m/s, 173° | 434 W/m² | - |
| 1777992406 | 28.33° C | 40% | 1011.5 hPa | 0 mm | 1.79 m/s, 92° | 439 W/m² | - |
| 1777992309 | 28.33° C | 39% | 1011.5 hPa | 0 mm | 1.79 m/s, 181° | 446 W/m² | - |
| 1777992197 | 28.33° C | 39% | 1011.5 hPa | 0 mm | 1.79 m/s, 146° | 455 W/m² | - |
| 1777992090 | 28.33° C | 40% | 1011.5 hPa | 0 mm | 1.79 m/s, 163° | 459 W/m² | - |
| 1777991994 | 28.33° C | 40% | 1011.5 hPa | 0 mm | 1.79 m/s, 145° | 464 W/m² | - |
| 1777991913 | 28.33° C | 40% | 1011.5 hPa | 0 mm | 2.24 m/s, 215° | 471 W/m² | - |
| 1777991829 | 28.33° C | 40% | 1011.6 hPa | 0 mm | 2.24 m/s, 178° | 475 W/m² | - |
* Rain latest hour (hover to see other rain measurements)
** Current wind speed in m/s (hover to see current wind gust speed)